Terminal Aerodrome Forecast
Issued by NWS

Home | Current Version | Previous Version | Graphics & Text | Print | Product List | Glossary On
Versions: 1 2 3 4 5 6 7 8 9 10 11 12 13 14 15 16 17 18 19 20 21 22 23 24
000
FTUS43 KGRB 281727
TAFCWA
TAF
KCWA 281727Z 2818/2918 20009KT P6SM -RA SCT015 BKN040
      TEMPO 2818/2821 4SM -RA BR BKN012
     FM282100 23005KT P6SM SCT020 BKN040
      TEMPO 2821/2901 4SM -SHRA BR BKN020
     FM290100 VRB03KT P6SM BKN040 BKN080
     FM290600 VRB03KT 4SM BR SCT020 BKN040
     FM290800 VRB03KT 2SM BR SCT008 BKN030
      TEMPO 2908/2912 1/2SM FG BKN008
     FM291200 VRB03KT 5SM BR SCT010 BKN040=

USA.gov is the U.S. government's official web portal to all federal, state and local government web resources and services.